[[{"header":{"parameterUnit":"m.s-1","parameterCategory":1,"la1":30.2991,"la2":30.254,"lo1":-89.0895,"lo2":-89.0444,"dy":0.0017,"dx":0.0017,"nx":28,"ny":28,"refTime":"2024-07-10T03:00:00:Z","depth":0,"parameterNumber":2,"parameterNumberName":"U-component_of_WINDS"},"data":[0,0,0,0,0,0,0,0,0,0,0,0,0,0,0,0,0,0,0,0,0,0,0,0,0,0,0,0,0,0,0,0,0,0,0,0,0,0,0,0,0,0,0,0,0,0,0,0,0,0,0,0,0,0,0,0,0,0,2.2085,2.2086,0,2.2178,2.2179,2.218,2.2153,2.2151,2.2149,2.2148,2.2245,2.2249,2.2253,0,0,0,0,0,0,0,0,0,0,0,0,0,2.1884,2.1887,2.2084,2.2086,2.2087,2.2178,2.2179,2.2181,2.2154,2.2151,2.2149,2.2147,2.2243,2.2248,2.2254,0,0,0,0,0,0,0,0,0,0,0,0,0,2.1973,2.1889,2.2084,2.2084,2.2085,2.2178,2.2179,2.2181,2.2154,2.2151,2.2148,2.2146,2.2241,2.2248,2.2254,2.2353,0,0,2.2274,2.2277,0,0,0,0,0,0,0,0,2.1968,2.1981,2.2083,2.2085,2.2086,2.2151,2.2144,2.2239,2.2155,2.2128,2.2148,2.2144,2.2216,2.2224,2.2248,2.2357,2.2361,2.2275,2.2279,2.2282,2.2284,0,0,0,0,0,0,0,2.1962,2.1977,2.2121,2.2085,2.2086,2.208,2.209,2.2162,2.2187,2.213,2.2128,2.214,2.2216,2.2242,2.225,2.2363,2.2275,2.2281,2.2285,2.2287,2.2557,2.256,0,0,0,0,0,0,2.1955,2.1972,2.2119,2.2124,2.2019,2.2086,2.2097,2.2133,2.2186,2.2192,2.2142,2.2138,2.2232,2.2243,2.2254,2.2371,2.2282,2.2288,2.2292,2.2554,2.2557,2.2561,0,0,0,0,0,0,2.1951,2.1968,2.2115,2.2048,2.2066,2.2093,2.2134,2.2136,2.2162,2.2195,2.22,2.2164,2.223,2.2244,2.2328,2.2374,2.2291,2.2297,2.255,2.2555,2.2559,2.2608,0,0,0,0,0,0,2.1945,2.1967,2.2004,2.2049,2.2069,2.2187,2.2136,2.214,2.2174,2.2169,2.2217,2.2222,2.2229,2.2318,2.2335,2.2382,2.2302,2.2546,2.2552,2.2558,2.2603,2.2614,2.2624,0,0,0,0,0,2.1938,2.2014,2.2006,2.2024,2.2116,2.219,2.2202,2.2208,2.2177,2.2215,2.2236,2.2221,2.2367,2.2327,2.2345,2.2395,2.2543,2.255,2.2557,2.2598,2.2612,2.2624,0,0,0,0,0,0,2.1975,2.202,2.2011,2.2105,2.2144,2.2185,2.2233,2.2223,2.2272,2.2266,2.2272,2.2283,2.2369,2.2391,2.2345,2.2493,2.2451,2.2462,2.2475,2.2489,2.2499,2.2492,2.2307,0,0,0,0,0,2.1994,2.2049,2.2086,2.2165,2.2185,2.2206,2.2238,2.224,2.228,2.2297,2.2324,2.2365,2.242,2.2456,2.2509,2.2606,2.2616,2.265,2.2661,2.2669,2.2678,2.2731,2.2746,2.2585,2.2585,2.2585,0,0,2.2033,2.2065,2.21,2.2173,2.2203,2.2261,2.222,2.2282,2.2325,2.2306,2.2386,2.2408,2.2454,2.2545,2.2586,2.2566,2.2725,2.2678,2.2685,2.269,2.274,2.2755,2.2769,2.259,2.2589,2.2588,0,0,2.2134,2.2165,2.2233,2.2264,2.2311,2.2324,2.2341,2.2385,2.2398,2.2479,2.2466,2.2517,2.2612,2.2645,2.2674,2.2789,2.2776,2.2807,2.2862,2.2913,2.2926,2.2937,2.2977,2.2992,2.2816,2.2816,2.2816,0,2.2178,2.2263,2.2269,2.2333,2.2366,2.2352,2.2421,2.2452,2.2513,2.2536,2.2513,2.2631,2.2661,2.2759,2.2787,2.2812,2.2831,2.28,2.2924,2.2935,2.2946,2.2984,2.2999,2.2819,2.2819,2.2819,2.2818,0,2.2314,2.2374,2.2423,2.2483,2.2521,2.2588,2.2604,2.2642,2.2641,2.2657,2.274,2.2776,2.2835,2.2859,2.2858,2.2957,2.2943,2.2922,2.2879,2.2964,2.3,2.3015,2.2824,2.2823,2.2822,2.2821,0,0,2.2438,2.2501,2.2519,2.2546,2.2597,2.2643,2.271,2.2767,2.28,2.2844,2.2899,2.298,2.2961,2.2994,2.2998,2.3043,2.3131,2.3016,2.3017,2.3035,2.3241,2.3255,2.3272,2.3123,2.3126,2.3128,2.3236,0,2.2543,2.2658,2.2666,2.277,2.2826,2.2814,2.2872,2.2909,2.2927,2.2976,2.2996,2.3053,2.3024,2.3044,2.3088,2.311,2.3172,2.3103,2.3174,2.3176,2.3161,2.3291,2.3306,2.3406,2.3251,2.3253,2.3255,0,2.2679,2.2726,2.2836,2.2879,2.2903,2.2954,2.3008,2.3056,2.3099,2.3108,2.3146,2.3143,2.3212,2.3168,2.3262,2.3215,2.3245,2.326,2.3264,2.327,2.3219,2.3298,2.3438,2.3453,2.3277,2.3275,2.3274,0,2.2757,2.2849,2.2926,2.2949,2.3002,2.3039,2.3062,2.3103,2.3137,2.3185,2.3207,2.3262,2.3292,2.3335,2.3347,2.3314,2.3441,2.3398,2.345,2.345,2.3476,2.3473,2.3621,2.3498,2.3498,2.3498,2.3497,0,2.2871,2.2938,2.2961,2.3009,2.3084,2.3093,2.3168,2.319,2.3226,2.3277,2.3272,2.332,2.3335,2.3386,2.3397,2.3473,2.3487,2.3496,2.3498,2.3496,2.3494,2.3514,2.3506,2.3502,2.3501,2.35,2.3499,0,2.297,2.2988,2.3071,2.3115,2.3128,2.3181,2.3219,2.3264,2.3282,2.3347,2.3363,2.339,2.345,2.3468,2.3541,2.3548,2.3636,2.3633,2.3621,2.3621,2.3671,2.3666,2.3835,2.3857,2.3722,2.3723,2.3724,0,2.304,2.3092,2.3141,2.3175,2.32,2.3256,2.3291,2.3303,2.334,2.3393,2.3432,2.3492,2.354,2.3637,2.3663,2.3719,2.3716,2.3771,2.3724,2.372,2.3715,2.3711,2.3716,2.3779,2.3781,2.3782,2.3783,0,2.3163,2.317,2.322,2.3275,2.3317,2.336,2.3402,2.343,2.3448,2.349,2.3552,2.3589,2.3664,2.3723,2.3779,2.3804,2.3797,2.3798,2.3813,2.381,2.3801,2.3805,2.3644,2.3794,2.3793,2.3792,2.3791,2.3791,2.3249,2.3294,2.3336,2.3392,2.3425,2.3465,2.3509,2.3533,2.3584,2.3645,2.365,2.3716,2.3759,2.3834,2.3862,2.3915,2.3898,2.392,2.3925,2.393,2.3933,2.3794,2.3925,2.3925,2.3925,2.3925,2.3924,0,2.337,2.3396,2.3449,2.3507,2.3552,2.3542,2.3588,2.3626,2.3684,2.3725,2.3772,2.3843,2.3901,2.3933,2.399,2.4026,2.4024,2.4041,2.4037,2.4043,2.3945,2.3926,2.4041,2.4041,2.4041,2.4041,2.4041,2.4041,2.3438,2.3513,2.3525,2.3617,2.3644,2.3708,2.3735,2.3772,2.3804,2.3883,2.3931,2.3951,2.3988,2.4049,2.4101,2.4109,2.413,2.4148,2.4154,2.4062,2.405,2.4038,2.402,2.4153,2.4153,2.4247,2.4248,2.4249]},{"header":{"parameterUnit":"m.s-1","parameterCategory":1,"la1":30.2991,"la2":30.254,"lo1":-89.0895,"lo2":-89.0444,"dy":0.0017,"dx":0.0017,"nx":28,"ny":28,"refTime":"2024-07-10T03:00:00:Z","depth":0,"parameterNumber":3,"parameterNumberName":"V-component_of_WINDS"},"data":[0,0,0,0,0,0,0,0,0,0,0,0,0,0,0,0,0,0,0,0,0,0,0,0,0,0,0,0,0,0,0,0,0,0,0,0,0,0,0,0,0,0,0,0,0,0,0,0,0,0,0,0,0,0,0,0,0,0,5.352,5.3522,0,5.3654,5.3656,5.3657,5.3636,5.3634,5.3632,5.363,5.3761,5.3766,5.3772,0,0,0,0,0,0,0,0,0,0,0,0,0,5.324,5.3245,5.352,5.3522,5.3524,5.3654,5.3656,5.3658,5.3637,5.3634,5.3631,5.3629,5.3759,5.3765,5.3772,0,0,0,0,0,0,0,0,0,0,0,0,0,5.3366,5.3247,5.352,5.3529,5.3531,5.3654,5.3656,5.3658,5.3637,5.3634,5.3631,5.3627,5.3757,5.3765,5.3773,5.3893,0,0,5.3799,5.3802,0,0,0,0,0,0,0,0,5.3359,5.3377,5.3526,5.3529,5.3531,5.3625,5.3605,5.3737,5.3638,5.3597,5.363,5.3626,5.3718,5.3729,5.3762,5.3899,5.3905,5.38,5.3805,5.3808,5.3811,0,0,0,0,0,0,0,5.335,5.3371,5.3573,5.3528,5.3531,5.3524,5.3539,5.363,5.3675,5.36,5.3599,5.3616,5.3719,5.3754,5.3765,5.3907,5.3799,5.3807,5.3812,5.3815,5.4149,5.4152,0,0,0,0,0,0,5.334,5.3364,5.3569,5.3577,5.3435,5.3532,5.3548,5.3598,5.3674,5.3682,5.3618,5.3614,5.3741,5.3755,5.3769,5.3915,5.3808,5.3816,5.3821,5.4145,5.415,5.4154,0,0,0,0,0,0,5.3334,5.3359,5.3563,5.347,5.3496,5.3541,5.3597,5.3603,5.3638,5.3687,5.3695,5.3646,5.3739,5.3757,5.3863,5.3919,5.382,5.3827,5.4141,5.4146,5.4152,5.4207,0,0,0,0,0,0,5.3326,5.3357,5.3404,5.3471,5.3501,5.3657,5.3601,5.3608,5.3653,5.3649,5.3716,5.3723,5.3738,5.385,5.3871,5.3929,5.3834,5.4136,5.4143,5.415,5.42,5.4213,5.4225,0,0,0,0,0,5.3316,5.3413,5.3407,5.3432,5.3562,5.366,5.3677,5.3693,5.3658,5.3705,5.3737,5.3721,5.3909,5.3861,5.3885,5.3945,5.4132,5.4141,5.4149,5.4194,5.4211,5.4225,0,0,0,0,0,0,5.3349,5.3422,5.3416,5.3538,5.3593,5.3656,5.3717,5.371,5.3775,5.3768,5.3783,5.3799,5.3906,5.3936,5.3881,5.4065,5.4016,5.4029,5.4042,5.4058,5.407,5.406,5.3841,0,0,0,0,0,5.337,5.3447,5.3505,5.3607,5.3635,5.3671,5.3715,5.3723,5.378,5.3803,5.3842,5.3897,5.3968,5.4014,5.4083,5.4204,5.4218,5.4257,5.427,5.428,5.4291,5.4357,5.4375,5.4182,5.4182,5.4182,0,0,5.3415,5.3465,5.3511,5.3615,5.3659,5.3735,5.3691,5.3774,5.383,5.3815,5.3917,5.3948,5.401,5.4124,5.4176,5.4152,5.4348,5.4291,5.4298,5.4305,5.4368,5.4386,5.4402,5.4188,5.4187,5.4186,0,0,5.3536,5.3582,5.3672,5.3717,5.3785,5.3808,5.383,5.3895,5.3915,5.4019,5.4009,5.4075,5.4198,5.4242,5.4281,5.4419,5.4406,5.444,5.4506,5.457,5.4585,5.4598,5.4647,5.4665,5.4451,5.4452,5.4452,0,5.3583,5.37,5.3718,5.3803,5.3848,5.3839,5.3929,5.3972,5.4057,5.4088,5.4061,5.4215,5.4256,5.438,5.4414,5.4445,5.4469,5.4433,5.4582,5.4595,5.4608,5.4655,5.4673,5.4455,5.4455,5.4455,5.4454,0,5.3754,5.3835,5.3899,5.3985,5.4037,5.4124,5.4153,5.4203,5.4207,5.4232,5.4337,5.4386,5.4464,5.4494,5.4497,5.4619,5.4602,5.4578,5.4529,5.463,5.4674,5.4692,5.4461,5.4459,5.4458,5.4457,0,0,5.3899,5.3994,5.4017,5.4056,5.413,5.4193,5.4278,5.4357,5.4399,5.4459,5.453,5.4634,5.4613,5.4657,5.4665,5.4721,5.4827,5.469,5.4692,5.4713,5.4963,5.498,5.5001,5.4819,5.4823,5.4825,5.4957,0,5.4027,5.4181,5.4199,5.4335,5.441,5.4403,5.4477,5.453,5.4556,5.4622,5.4649,5.4723,5.4689,5.4716,5.4771,5.4802,5.4877,5.4793,5.4884,5.4887,5.4869,5.5024,5.5043,5.5165,5.4975,5.4978,5.498,0,5.4197,5.4264,5.4408,5.4472,5.4504,5.4571,5.4645,5.4708,5.4767,5.4781,5.4831,5.4832,5.4918,5.4865,5.4984,5.4926,5.4964,5.4985,5.499,5.4999,5.494,5.5037,5.5205,5.5223,5.5007,5.5005,5.5003,0,5.4288,5.4413,5.4516,5.4549,5.4627,5.4674,5.4708,5.4764,5.481,5.4874,5.4903,5.4975,5.5014,5.5069,5.5088,5.5048,5.5206,5.5154,5.5219,5.5219,5.5252,5.525,5.5429,5.5277,5.5277,5.5277,5.5276,0,5.4429,5.4517,5.4558,5.4621,5.472,5.4739,5.4835,5.4867,5.4917,5.4984,5.4982,5.5044,5.5067,5.5133,5.5148,5.5243,5.5261,5.5274,5.5277,5.5275,5.5273,5.53,5.5292,5.5281,5.528,5.5279,5.5279,0,5.4547,5.4579,5.469,5.4755,5.4773,5.4843,5.4898,5.4957,5.4983,5.5068,5.5089,5.5129,5.5206,5.5231,5.5324,5.5335,5.5446,5.5442,5.5427,5.5428,5.5491,5.5485,5.5693,5.5721,5.5551,5.5553,5.5554,0,5.4635,5.4704,5.4777,5.4823,5.486,5.4934,5.4982,5.5003,5.5052,5.5124,5.5175,5.5253,5.5316,5.544,5.5476,5.5547,5.5544,5.5612,5.5554,5.555,5.5545,5.554,5.5547,5.5623,5.5624,5.5626,5.5627,0,5.4788,5.4801,5.4871,5.4946,5.5004,5.5064,5.5121,5.5159,5.5188,5.5243,5.5324,5.5373,5.547,5.5546,5.5619,5.5651,5.5644,5.5645,5.5664,5.5662,5.5651,5.5657,5.5457,5.564,5.5639,5.5638,5.5637,5.5636,5.4894,5.4955,5.5016,5.5094,5.514,5.5194,5.5254,5.5288,5.5356,5.5438,5.5445,5.5532,5.5588,5.5685,5.5722,5.5789,5.5769,5.5796,5.5803,5.5809,5.5814,5.564,5.5802,5.5801,5.5801,5.5801,5.58,0,5.5047,5.5086,5.5158,5.524,5.5301,5.5291,5.5354,5.5405,5.5483,5.5537,5.56,5.5692,5.5766,5.5808,5.5882,5.5927,5.5926,5.5946,5.5942,5.595,5.5828,5.5804,5.5946,5.5946,5.5946,5.5946,5.5946,5.5946,5.5133,5.5235,5.5255,5.5379,5.5417,5.5504,5.5541,5.559,5.5634,5.5738,5.5801,5.5828,5.5877,5.5954,5.6021,5.6031,5.6058,5.6081,5.6089,5.5974,5.5959,5.5944,5.5922,5.6087,5.6087,5.6206,5.6207,5.6208]}]]